Home   Weather   Flagstaff   Past weeks

Flag for USA Past Weather in Flagstaff, Arizona, USA — Yesterday and Last 2 Weeks

Now
47 °F

Fog.


Feels Like: 47 °F
Forecast: 43 / 68 °F
Wind: No wind

Location: Flagstaff Pulliam Airport

Current Time: Sep 30, 2016 at 4:58:09 AM

Latest Report: Sep 30, 2016 at 3:57 AM


Visibility: 3 mi

Pressure: 30.18 "Hg (23.38 "Hg at 2103m altitude)

Humidity: 97%

Dew Point: 46 °F

Location of FlagstaffLocation

Past Weather in Flagstaff — Graph

°F

Flagstaff Temperature Yesterday

Maximum temperature yesterday: 59 °F (at 2:57 PM)
Minimum temperature yesterday: 46 °F (at 8:57 PM)
Average temperature yesterday: 53 °F

High & Low Weather Summary for the Past Weeks

 TemperatureHumidityPressure
High81 °F (Sep 19, 12:57 PM)100% (Sep 20, 5:57 PM)30.36 "Hg (Sep 20, 5:57 PM)
Low30 °F (Sep 17, 5:57 AM)8% (Sep 18, 3:57 PM)29.72 "Hg (Sep 23, 12:57 AM)
Average54 °F57%30.07 "Hg
* Reported Sep 15 2:57 AM — Sep 30 2:57 AM, Flagstaff, Weather by CustomWeather, © 2016

Note: Actual official high and low records may vary slightly from our data, if they occured in-between our weather recording intervals... More about our weather records

Advertising

Flagstaff Weather History for the Previous 24 Hours

Scroll right to see more
 ConditionsComfort  
Time TempWeatherWind HumidityBarometerVisibility
2:57 AM
Fri, Sep 30
48 °FFog.No wind100%30.17 "Hg0 mi
1:57 AM49 °FFog.No wind100%30.19 "Hg0 mi
12:57 AM50 °FFog.3 mph100%30.20 "Hg0 mi
11:57 PM
Thu, Sep 29
51 °FFog.6 mph100%30.21 "Hg1 mi
10:57 PM51 °FFog.6 mph100%30.22 "Hg1 mi
9:57 PM51 °FFog.6 mph100%30.22 "Hg1 mi
8:57 PM46 °FClear.No wind100%30.24 "Hg10 mi
7:57 PM48 °FClear.No wind96%30.23 "Hg10 mi
6:57 PM50 °FClear.No wind96%30.19 "Hg10 mi
5:57 PM55 °FSunny.No wind87%30.19 "Hg10 mi
4:57 PM58 °FPartly sunny.No wind78%30.17 "Hg10 mi
3:57 PM59 °FOvercast.5 mph75%30.19 "Hg10 mi
2:57 PM59 °FOvercast.No wind72%30.19 "Hg10 mi
1:57 PM58 °FPartly sunny.5 mph78%30.21 "Hg10 mi
12:57 PM56 °FMore clouds than sun.7 mph90%30.24 "Hg10 mi
11:57 AM57 °FMostly cloudy.3 mph87%30.26 "Hg10 mi
10:57 AM56 °FLight rain. Overcast.7 mph90%30.28 "Hg10 mi
9:57 AM56 °FLight rain. Mostly cloudy.No wind87%30.26 "Hg10 mi
8:57 AM55 °FMostly cloudy.3 mph90%30.24 "Hg10 mi
7:57 AM52 °FLight rain. Fog.No wind100%30.24 "Hg4 mi
6:57 AM51 °FMostly cloudy.No wind100%30.22 "Hg10 mi
5:57 AM51 °FOvercast.No wind96%30.19 "Hg10 mi
4:57 AM51 °FOvercast.No wind100%30.16 "Hg9 mi
Weather by CustomWeather, © 2016

See weather overviewHow to use our weather pages